2023/03/06 00:00:00,68.1,-0.1
2023/03/06 00:10:00,68.1,-0.1
2023/03/06 00:20:00,68.1,-0.3
2023/03/06 00:30:00,68.1,-0.2
2023/03/06 00:40:00,68.1,-0.3
2023/03/06 00:50:00,68.0, 0.4
2023/03/06 01:00:00,68.1, 0.5
2023/03/06 01:10:00,68.0, 0.7
2023/03/06 01:20:00,68.0, 0.7
2023/03/06 01:30:00,68.0, 0.8
2023/03/06 01:40:00,68.0, 0.9
2023/03/06 01:50:00,68.0, 0.8
2023/03/06 02:00:00,68.0, 0.8
2023/03/06 02:10:00,68.0, 0.7
2023/03/06 02:20:00,68.1, 0.9
2023/03/06 02:30:00,68.1, 0.4
2023/03/06 02:40:00,68.1, 0.7
2023/03/06 02:50:00,68.1, 0.6
2023/03/06 03:00:00,68.0, 0.7
2023/03/06 03:10:00,68.0, 0.5
2023/03/06 03:20:00,68.0, 0.5
2023/03/06 03:30:00,68.0, 0.4
2023/03/06 03:40:00,68.0, 0.8
2023/03/06 03:50:00,68.0, 0.7
2023/03/06 04:00:00,68.0, 0.8
2023/03/06 04:10:00,68.0, 0.4
2023/03/06 04:20:00,68.0, 0.7
2023/03/06 04:30:00,68.0, 0.5
2023/03/06 04:40:00,68.0, 0.6
2023/03/06 04:50:00,68.0, 0.6
2023/03/06 05:00:00,68.0, 0.3
2023/03/06 05:10:00,68.0, 0.4
2023/03/06 05:20:00,68.0, 0.2
2023/03/06 05:30:00,68.0, 0.2
2023/03/06 05:40:00,67.9, 0.1
2023/03/06 05:50:00,67.9,-0.1
2023/03/06 06:00:00,67.9, 0.3
2023/03/06 06:10:00,67.9, 0.3
2023/03/06 06:20:00,67.9, 0.4
2023/03/06 06:30:00,67.9, 0.3
2023/03/06 06:40:00,67.9, 0.4
2023/03/06 06:50:00,67.9, 0.4
2023/03/06 07:00:00,67.9, 0.5
2023/03/06 07:10:00,67.9, 0.2
2023/03/06 07:20:00,67.9, 0.2
2023/03/06 07:30:00,67.9, 0.1
2023/03/06 07:40:00,67.9, 0.9
2023/03/06 07:50:00,67.9, 1.1
2023/03/06 08:00:00,67.8, 1.8
2023/03/06 08:10:00,67.9, 2.1
2023/03/06 08:20:00,67.9, 1.8
2023/03/06 08:30:00,67.9, 2.8
2023/03/06 08:40:00,67.7, 3.3
2023/03/06 08:50:00,67.6, 4.3
2023/03/06 09:00:00,67.8, 5.8
2023/03/06 09:10:00,67.8, 6.9
2023/03/06 09:20:00,67.5, 8.5
2023/03/06 09:30:00,66.5, 9.2
2023/03/06 09:40:00,66.0, 9.9
2023/03/06 09:50:00,65.8,10.8
2023/03/06 10:00:00,66.3,11.3
2023/03/06 10:10:00,66.2,11.4
2023/03/06 10:20:00,67.0,11.5
2023/03/06 10:30:00,66.5,11.3
2023/03/06 10:40:00,65.5,10.9
2023/03/06 10:50:00,40.1,11.2
2023/03/06 11:00:00,---,11.7
2023/03/06 11:10:00,---,12.2
2023/03/06 11:20:00,64.6,12.0
2023/03/06 11:30:00,64.4,12.4
2023/03/06 11:40:00,65.0,12.9
2023/03/06 11:50:00,66.0,13.2
2023/03/06 12:00:00,66.4,13.9
2023/03/06 12:10:00,66.8,13.9
2023/03/06 12:20:00,66.3,14.8
2023/03/06 12:30:00,65.6,15.6
2023/03/06 12:40:00,65.5,16.0
2023/03/06 12:50:00,65.2,16.5
2023/03/06 13:00:00,65.0,16.9
2023/03/06 13:10:00,64.9,17.3
2023/03/06 13:20:00,65.0,17.2
2023/03/06 13:30:00,63.8,17.3
2023/03/06 13:40:00, 0.0,17.5
2023/03/06 13:50:00, 0.0,17.6
2023/03/06 14:00:00, 0.0,18.0
2023/03/06 14:10:00, 0.0,17.2
2023/03/06 14:20:00, 0.0,17.9
2023/03/06 14:30:00, 0.0,18.2
2023/03/06 14:40:00,---,18.4
2023/03/06 14:50:00, 5.3,18.2
2023/03/06 15:00:00, 5.2,18.8
2023/03/06 15:10:00,38.3,19.5
2023/03/06 15:20:00,62.9,20.4
2023/03/06 15:30:00,---,20.3
2023/03/06 15:40:00,29.8,20.7
2023/03/06 15:50:00,62.7,21.1
2023/03/06 16:00:00,62.7,20.1
2023/03/06 16:10:00,63.1,20.5
2023/03/06 16:20:00,63.5,19.5
2023/03/06 16:30:00,63.3,18.9
2023/03/06 16:40:00,64.0,17.2
2023/03/06 16:50:00,64.2,14.6
2023/03/06 17:00:00,63.9,13.0
2023/03/06 17:10:00,64.7,11.2
2023/03/06 17:20:00,64.8,10.9
2023/03/06 17:30:00,64.7,10.4
2023/03/06 17:40:00,64.8, 8.4
2023/03/06 17:50:00,64.8, 6.2
2023/03/06 18:00:00,64.8, 4.5
2023/03/06 18:10:00,64.8, 3.8
2023/03/06 18:20:00,64.7, 3.2
2023/03/06 18:30:00,64.7, 2.8
2023/03/06 18:40:00,64.7, 2.6
2023/03/06 18:50:00,64.7, 2.4
2023/03/06 19:00:00,64.8, 2.0
2023/03/06 19:10:00,64.8, 2.2
2023/03/06 19:20:00,64.8, 2.2
2023/03/06 19:30:00,64.7, 2.2
2023/03/06 19:40:00,64.7, 2.3
2023/03/06 19:50:00,64.8, 2.2
2023/03/06 20:00:00,64.8, 2.4
2023/03/06 20:10:00,64.8, 2.3
2023/03/06 20:20:00,64.8, 1.7
2023/03/06 20:30:00,64.8, 2.1
2023/03/06 20:40:00,64.8, 2.2
2023/03/06 20:50:00,64.8, 2.5
2023/03/06 21:00:00,64.8, 2.3
2023/03/06 21:10:00,64.9, 2.1
2023/03/06 21:20:00,64.9, 2.3
2023/03/06 21:30:00,64.9, 2.2
2023/03/06 21:40:00,64.9, 2.1
2023/03/06 21:50:00,64.9, 2.2
2023/03/06 22:00:00,64.8, 2.3
2023/03/06 22:10:00,64.8, 2.1
2023/03/06 22:20:00,64.8, 1.9
2023/03/06 22:30:00,64.8, 1.9
2023/03/06 22:40:00,64.8, 1.8
2023/03/06 22:50:00,64.7, 2.1
2023/03/06 23:00:00,64.7, 2.0
2023/03/06 23:10:00,64.7, 1.9
2023/03/06 23:20:00,64.7, 1.8
2023/03/06 23:30:00,64.7, 1.9
2023/03/06 23:40:00,64.7, 1.8
2023/03/06 23:50:00,64.7, 1.9
